Location: Newark
(40.2370°N, 1.4081°W)
Time: 04:54:39
(UTC+00:00)

ISS - Visible Passes

Search period start: 18 October 2019 00:00
Search period end: 28 October 2019 00:00
Orbit: 411 x 421 km, 51.6° (Epoch: 17 October)

Date Brightness Start Highest point End Pass type
(mag) Time Alt. Az. Time Alt. Az. Time Alt. Az.
23 Oct -1.4 05:34:15 10° S 05:37:03 25° SE 05:39:52 10° ENE visible
24 Oct -0.8 04:46:45 10° SSE 04:48:39 14° SE 04:50:33 10° E visible
25 Oct -3.6 05:33:05 10° SW 05:36:27 75° SE 05:39:49 10° NE visible
26 Oct -2.6 04:46:47 29° S 04:47:56 40° SE 04:51:07 10° ENE visible
27 Oct -0.9 04:00:51 18° E 04:00:51 18° E 04:02:12 10° E visible
27 Oct -3.2 05:33:47 17° W 05:36:03 41° NNW 05:39:16 10° NE visible
